Weather History for LESO - May, 2013

Change the Weather History Date:

Wednesday, May 29, 2013

  Actual Average Record
Temperature  
Mean Temperature 52 °F -  
Max Temperature 57 °F 71 °F 82 °F (1997)
Min Temperature 48 °F 59 °F 48 °F (2013)
Degree Days  
Heating Degree Days 12    
Growing Degree Days 2 (Base 50)    
Moisture  
Dew Point 46 °F    
Average Humidity 82    
Maximum Humidity 88    
Minimum Humidity 67    
Precipitation  
Precipitation 0.00 in - - ()
Sea Level Pressure  
Sea Level Pressure 29.90 in    
Wind  
Wind Speed 12 mph ()    
Max Wind Speed 17 mph    
Max Gust Speed 39 mph    
Visibility 6.1 miles    
Events Rain    
Averages and records for this station are not official NWS values.
T = Trace of Precipitation, MM = Missing Value Source: Averaged Metar Reports

Daily Weather History Graph

Daily Weather History Graph

Search for Another Location

Airport or City:

Trip Planner

Search our weather history database for the weather conditions in past years. The results will help you decide how hot, cold, wet, or windy it might be!

Date:

Astronomy

May. 29, 2013 Rise Set
Actual Time 6:31 AM CEST 9:38 PM CEST
Civil Twilight 5:56 AM CEST 10:12 PM CEST
Nautical Twilight 5:12 AM CEST 10:57 PM CEST
Astronomical Twilight 4:19 AM CEST 11:50 PM CEST
Moon 12:47 AM CEST (5/29) 11:17 AM CEST (5/29)
Length of Visible Light 16h 16m
Length of Day
15h 07m
Waning Gibbous, 76% of the Moon is Illuminated
May 29
Waning Gibbous
May 31
Last Quarter
Jun 8
New
Jun 16
First Quarter
Jun 23
Full

Hourly Weather History & Observations

Time (CEST) Temp. Dew Point Humidity Pressure Visibility Wind Dir Wind Speed Gust Speed Precip Events Conditions
5:30 AM 50.0 °F 46.4 °F 87% 29.86 in 6.2 mi SW 12.7 mph - N/A   Mostly Cloudy
6:00 AM 51.8 °F 46.4 °F 82% 29.89 in 6.2 mi SW 11.5 mph 23.0 mph N/A Rain Rain
6:30 AM 50.0 °F 44.6 °F 82% 29.86 in 6.2 mi SW 13.8 mph - N/A   Mostly Cloudy
7:00 AM 50.0 °F 44.6 °F 82% 29.86 in 6.2 mi SW 15.0 mph - N/A Rain Rain
7:30 AM 50.0 °F 44.6 °F 82% 29.89 in 4.3 mi SSW 12.7 mph - N/A Rain Rain
8:00 AM 48.2 °F 44.6 °F 87% 29.89 in 5.0 mi SW 15.0 mph - N/A Rain Heavy Rain
8:05 AM 48.2 °F 44.6 °F 87% 29.89 in 6.2 mi SW 17.3 mph 39.1 mph N/A Rain Light Rain
8:30 AM 48.2 °F 44.6 °F 87% 29.89 in 6.2 mi SW 12.7 mph - N/A Rain Light Rain
9:00 AM 50.0 °F 44.6 °F 82% 29.89 in 6.2 mi SSW 13.8 mph - N/A Rain Rain
9:30 AM 50.0 °F 46.4 °F 87% 29.89 in 6.2 mi SSW 13.8 mph - N/A Rain Light Rain
10:00 AM 50.0 °F 46.4 °F 87% 29.89 in 6.2 mi SSW 16.1 mph - N/A   Mostly Cloudy
10:30 AM 50.0 °F 46.4 °F 87% 29.89 in 6.2 mi SSW 17.3 mph - N/A Rain Light Rain
11:00 AM 51.8 °F 46.4 °F 82% 29.89 in 6.2 mi SSW 17.3 mph - N/A   Mostly Cloudy
11:30 AM 50.0 °F 46.4 °F 87% 29.89 in 6.2 mi SW 15.0 mph - N/A Rain Rain
12:00 PM 51.8 °F 46.4 °F 82% 29.89 in 6.2 mi SSW 13.8 mph 26.5 mph N/A Rain Rain
12:30 PM 51.8 °F 46.4 °F 82% 29.89 in 6.2 mi SW 15.0 mph - N/A   Mostly Cloudy
1:00 PM 53.6 °F 46.4 °F 77% 29.89 in 6.2 mi SW 15.0 mph - N/A Rain Light Rain
1:30 PM 51.8 °F 46.4 °F 82% 29.92 in 6.2 mi SW 10.4 mph - N/A Rain Light Rain
2:00 PM 51.8 °F 46.4 °F 82% 29.92 in 6.2 mi SW 12.7 mph 25.3 mph N/A Rain Rain
2:30 PM 53.6 °F 48.2 °F 82% 29.92 in 6.2 mi SW 12.7 mph - N/A   Mostly Cloudy
3:00 PM 57.2 °F 46.4 °F 67% 29.89 in 6.2 mi Variable 11.5 mph 23.0 mph N/A   Mostly Cloudy
3:30 PM 53.6 °F 48.2 °F 82% 29.92 in 6.2 mi Variable 8.1 mph - N/A Rain Rain
4:00 PM 51.8 °F 48.2 °F 88% 29.92 in 4.3 mi Variable 6.9 mph 18.4 mph N/A Rain Rain
4:30 PM 53.6 °F 46.4 °F 77% 29.92 in 6.2 mi SW 17.3 mph 34.5 mph N/A   Mostly Cloudy
5:00 PM 53.6 °F 46.4 °F 77% 29.92 in 6.2 mi SW 12.7 mph - N/A   Scattered Clouds
5:30 PM 55.4 °F 48.2 °F 77% 29.92 in 6.2 mi WSW 12.7 mph 25.3 mph N/A Rain Light Rain
6:00 PM 55.4 °F 48.2 °F 77% 29.92 in 6.2 mi SW 15.0 mph 29.9 mph N/A   Scattered Clouds
6:30 PM 53.6 °F 44.6 °F 72% 29.92 in 6.2 mi Variable 5.8 mph - N/A Rain Light Rain
7:00 PM 53.6 °F 48.2 °F 82% 29.92 in 6.2 mi West 4.6 mph - N/A Rain Rain
7:30 PM 51.8 °F 46.4 °F 82% 29.92 in 6.2 mi WNW 10.4 mph - N/A Rain Light Rain
8:00 PM 51.8 °F 46.4 °F 82% 29.92 in 6.2 mi Variable 6.9 mph 18.4 mph N/A Rain Rain
8:30 PM 51.8 °F 48.2 °F 88% 29.92 in 6.2 mi SW 10.4 mph - N/A Rain Light Rain
9:00 PM 51.8 °F 48.2 °F 88% 29.92 in 6.2 mi SSW 6.9 mph - N/A Rain Light Rain
9:30 PM 51.8 °F 48.2 °F 88% 29.95 in 6.2 mi SSW 8.1 mph - N/A   Mostly Cloudy